MFX655 UZTT-ZWWW

Flight info

Callsign MFX655
Flight time 1h 53m
Altitude 35000
Route TISIB2F TISIB P984 IZIMA L135 TIRBA M610 RULAD/K0863S1070 A343 POSOT B215 EPDAG EPDAG8Y
Aircraft B763/H-SDE3FGHIM3RWXY/LB1

Departure

Time 2026-04-23 17:33
Airport Tashkent International Airport (UZTT)

Arrival

Time 2026-04-23 19:26
Airport Ürümqi Tianshan International Airport (ZWWW)
Time Latitude Longitude Altitude Speed Heading
2026-04-23 16:46 41.26224 69.28059 1427 ft 0 kts 353°
2026-04-23 17:10 41.26216 69.28059 1427 ft 2 kts 353°
2026-04-23 17:10 41.26201 69.28062 1427 ft 2 kts 353°
2026-04-23 17:11 41.26185 69.28065 1427 ft 2 kts 348°
2026-04-23 17:11 41.26172 69.28072 1427 ft 2 kts 316°
2026-04-23 17:11 41.26163 69.28088 1427 ft 2 kts 291°
2026-04-23 17:11 41.26160 69.28108 1427 ft 2 kts 265°
2026-04-23 17:12 41.26163 69.28127 1427 ft 2 kts 258°
2026-04-23 17:12 41.26164 69.28134 1427 ft 0 kts 261°
2026-04-23 17:15 41.26163 69.28130 1427 ft 0 kts 261°
2026-04-23 17:15 41.26162 69.28118 1427 ft 2 kts 262°
2026-04-23 17:16 41.26156 69.28061 1427 ft 11 kts 261°
2026-04-23 17:16 41.26150 69.28015 1427 ft 1 kts 261°
2026-04-23 17:16 41.26149 69.27999 1427 ft 6 kts 261°
2026-04-23 17:16 41.26136 69.27880 1427 ft 18 kts 261°
2026-04-23 17:17 41.26117 69.27709 1427 ft 18 kts 261°
2026-04-23 17:17 41.26101 69.27567 1427 ft 14 kts 261°
2026-04-23 17:17 41.26091 69.27481 1427 ft 13 kts 261°
2026-04-23 17:17 41.26078 69.27358 1427 ft 0 kts 261°
2026-04-23 17:18 41.26054 69.27277 1427 ft 4 kts 206°
2026-04-23 17:18 41.26014 69.27299 1427 ft 11 kts 139°
2026-04-23 17:18 41.25942 69.27383 1427 ft 11 kts 139°
2026-04-23 17:19 41.25938 69.27387 1427 ft 0 kts 139°
2026-04-23 17:27 41.25936 69.27389 1427 ft 3 kts 139°
2026-04-23 17:27 41.25880 69.27454 1427 ft 17 kts 139°
2026-04-23 17:27 41.25782 69.27577 1427 ft 19 kts 131°
2026-04-23 17:27 41.25682 69.27689 1427 ft 17 kts 143°
2026-04-23 17:28 41.25606 69.27650 1427 ft 12 kts 254°
2026-04-23 17:28 41.25591 69.27538 1427 ft 13 kts 261°
2026-04-23 17:28 41.25571 69.27355 1427 ft 26 kts 261°
2026-04-23 17:28 41.25542 69.27090 1427 ft 29 kts 262°
2026-04-23 17:29 41.25513 69.26828 1427 ft 28 kts 261°
2026-04-23 17:29 41.25485 69.26577 1427 ft 27 kts 262°
2026-04-23 17:29 41.25434 69.26108 1427 ft 20 kts 261°
2026-04-23 17:30 41.25420 69.25987 1427 ft 19 kts 262°
2026-04-23 17:30 41.25473 69.25809 1427 ft 0 kts 352°
2026-04-23 17:31 41.25474 69.25809 1427 ft 0 kts 352°
2026-04-23 17:31 41.25521 69.25800 1427 ft 13 kts 351°
2026-04-23 17:31 41.25598 69.25869 1427 ft 15 kts 78°
2026-04-23 17:31 41.25601 69.25894 1427 ft 0 kts 80°
2026-04-23 17:32 41.25604 69.25924 1427 ft 11 kts 81°
2026-04-23 17:32 41.25637 69.26225 1427 ft 59 kts 81°
2026-04-23 17:32 41.25724 69.27007 1427 ft 109 kts 81°
2026-04-23 17:32 41.25857 69.28216 1427 ft 153 kts 82°
2026-04-23 17:33 41.26021 69.29742 1576 ft 179 kts 83°
2026-04-23 17:33 41.26187 69.31395 2159 ft 182 kts 82°
2026-04-23 17:33 41.26362 69.33063 2762 ft 183 kts 82°
2026-04-23 17:33 41.26542 69.34798 3214 ft 194 kts 81°
2026-04-23 17:34 41.26734 69.36571 3806 ft 195 kts 81°
2026-04-23 17:34 41.26931 69.38357 4333 ft 200 kts 82°
2026-04-23 17:34 41.26784 69.42249 5172 ft 225 kts 104°
2026-04-23 17:35 41.26458 69.44342 5554 ft 244 kts 102°
2026-04-23 17:35 41.25928 69.48315 6248 ft 276 kts 99°
2026-04-23 17:35 41.25502 69.51784 6942 ft 299 kts 100°
2026-04-23 17:36 41.25174 69.54488 7985 ft 295 kts 101°
2026-04-23 17:36 41.24845 69.57233 8580 ft 310 kts 101°
2026-04-23 17:36 41.24505 69.60064 9415 ft 314 kts 101°
2026-04-23 17:36 41.24159 69.62978 10148 ft 321 kts 102°
2026-04-23 17:37 41.23800 69.65932 10761 ft 334 kts 103°
2026-04-23 17:37 41.23425 69.69054 11247 ft 352 kts 103°
2026-04-23 17:37 41.22704 69.75043 12170 ft 383 kts 102°
2026-04-23 17:38 41.22128 69.78539 12684 ft 396 kts 113°
2026-04-23 17:38 41.21171 69.81973 13574 ft 401 kts 114°
2026-04-23 17:38 41.20261 69.85484 14452 ft 407 kts 114°
2026-04-23 17:38 41.19311 69.89040 15346 ft 412 kts 114°
2026-04-23 17:39 41.18347 69.92651 16209 ft 418 kts 114°
2026-04-23 17:39 41.17358 69.96337 16962 ft 426 kts 114°
2026-04-23 17:39 41.16367 70.00015 17787 ft 431 kts 114°
2026-04-23 17:39 41.15404 70.03592 18483 ft 437 kts 115°
2026-04-23 17:40 41.14512 70.06898 19231 ft 439 kts 115°
2026-04-23 17:40 41.13479 70.10711 19857 ft 447 kts 115°
2026-04-23 17:40 41.12415 70.14633 20587 ft 452 kts 115°
2026-04-23 17:40 41.11517 70.18555 21207 ft 464 kts 107°
2026-04-23 17:41 41.11084 70.22943 21958 ft 474 kts 96°
2026-04-23 17:41 41.11823 70.31819 23157 ft 497 kts 77°
2026-04-23 17:41 41.12976 70.36123 23851 ft 503 kts 68°
2026-04-23 17:42 41.15616 70.44556 25035 ft 514 kts 70°
2026-04-23 17:42 41.16924 70.48962 25598 ft 520 kts 71°
2026-04-23 17:42 41.18231 70.53445 26211 ft 524 kts 71°
2026-04-23 17:43 41.19544 70.57996 26732 ft 530 kts 72°
2026-04-23 17:43 41.20855 70.62565 27293 ft 535 kts 72°
2026-04-23 17:43 41.22184 70.67221 27941 ft 538 kts 72°
2026-04-23 17:43 41.23509 70.71876 28446 ft 543 kts 73°
2026-04-23 17:44 41.24856 70.76623 28966 ft 548 kts 72°
2026-04-23 17:44 41.26203 70.81373 29453 ft 553 kts 73°
2026-04-23 17:44 41.28923 70.91002 30542 ft 558 kts 73°
2026-04-23 17:45 41.30279 70.95831 31313 ft 555 kts 73°
2026-04-23 17:45 41.32988 71.05491 32467 ft 556 kts 73°
2026-04-23 17:45 41.34331 71.10274 33126 ft 554 kts 73°
2026-04-23 17:46 41.37026 71.19931 34302 ft 553 kts 73°
2026-04-23 17:46 41.38359 71.24728 34941 ft 552 kts 72°
2026-04-23 17:46 41.39675 71.29458 35137 ft 536 kts 73°
2026-04-23 17:47 41.42228 71.38678 35155 ft 534 kts 73°
2026-04-23 17:47 41.44828 71.48105 35164 ft 548 kts 72°
2026-04-23 17:48 41.46151 71.52911 35166 ft 552 kts 72°
2026-04-23 17:48 41.48781 71.62475 35156 ft 548 kts 72°
2026-04-23 17:49 41.51397 71.72038 35146 ft 546 kts 73°
2026-04-23 17:49 41.53997 71.81584 35156 ft 550 kts 73°
2026-04-23 17:50 41.56614 71.91222 35150 ft 549 kts 73°
2026-04-23 17:50 41.60502 72.05609 35186 ft 549 kts 73°
2026-04-23 17:51 41.63094 72.15255 35193 ft 550 kts 73°
2026-04-23 17:52 41.66950 72.29667 35196 ft 549 kts 73°
2026-04-23 17:52 41.70672 72.43661 35180 ft 550 kts 72°
2026-04-23 17:53 41.74504 72.58157 35168 ft 549 kts 72°
2026-04-23 17:54 41.76998 72.67634 35169 ft 552 kts 73°
2026-04-23 17:54 41.80785 72.82095 35152 ft 549 kts 73°
2026-04-23 17:55 41.84576 72.96665 35156 ft 551 kts 73°
2026-04-23 17:56 41.87082 73.06329 35178 ft 551 kts 73°
2026-04-23 17:56 41.90853 73.20954 35204 ft 551 kts 72°
2026-04-23 17:57 41.93341 73.30655 35221 ft 548 kts 72°
2026-04-23 17:58 41.97043 73.45163 35229 ft 549 kts 72°
2026-04-23 17:58 41.99507 73.54855 35241 ft 547 kts 72°
2026-04-23 17:59 42.01962 73.64565 35251 ft 547 kts 72°
2026-04-23 17:59 42.04398 73.74237 35242 ft 547 kts 73°
2026-04-23 18:00 42.06953 73.83865 35239 ft 545 kts 71°
2026-04-23 18:00 42.09542 73.93466 35225 ft 545 kts 71°
2026-04-23 18:01 42.12126 74.03080 35230 ft 546 kts 71°
2026-04-23 18:01 42.14693 74.12679 35215 ft 545 kts 71°
2026-04-23 18:02 42.16828 74.20686 35216 ft 546 kts 71°
2026-04-23 18:02 42.19832 74.32007 35213 ft 547 kts 71°
2026-04-23 18:03 42.22391 74.41682 35192 ft 546 kts 71°
2026-04-23 18:03 42.24919 74.51285 35219 ft 546 kts 70°
2026-04-23 18:04 42.27417 74.60809 35238 ft 547 kts 71°
2026-04-23 18:04 42.29939 74.70464 35232 ft 546 kts 72°
2026-04-23 18:05 42.32462 74.80164 35248 ft 547 kts 71°
2026-04-23 18:05 42.34522 74.88116 35239 ft 547 kts 71°
2026-04-23 18:06 42.37035 74.97847 35233 ft 548 kts 71°
2026-04-23 18:06 42.39538 75.07574 35218 ft 547 kts 72°
2026-04-23 18:07 42.42037 75.17327 35209 ft 546 kts 71°
2026-04-23 18:07 42.45113 75.26736 35204 ft 547 kts 64°
2026-04-23 18:08 42.47804 75.34455 35233 ft 547 kts 64°
2026-04-23 18:08 42.51587 75.45312 35266 ft 545 kts 64°
2026-04-23 18:09 42.54814 75.54603 35229 ft 548 kts 64°
2026-04-23 18:09 42.58058 75.63976 35200 ft 546 kts 64°
2026-04-23 18:10 42.60652 75.71488 35153 ft 545 kts 64°
2026-04-23 18:10 42.61665 75.74428 35153 ft 545 kts 64°
2026-04-23 18:11 42.63816 75.80676 35174 ft 544 kts 65°
2026-04-23 18:11 42.67008 75.89988 35164 ft 545 kts 64°
2026-04-23 18:12 42.70217 75.99374 35171 ft 545 kts 64°
2026-04-23 18:12 42.73404 76.08730 35148 ft 546 kts 65°
2026-04-23 18:13 42.76574 76.18068 35191 ft 544 kts 64°
2026-04-23 18:13 42.79747 76.27447 35201 ft 544 kts 64°
2026-04-23 18:14 42.82372 76.35231 35228 ft 545 kts 64°
2026-04-23 18:14 42.86075 76.46248 35234 ft 547 kts 64°
2026-04-23 18:15 42.89340 76.55549 35240 ft 544 kts 56°
2026-04-23 18:15 42.94016 76.63631 35263 ft 536 kts 38°
2026-04-23 18:16 42.99774 76.69881 35237 ft 532 kts 32°
2026-04-23 18:16 43.04753 76.75003 35220 ft 531 kts 32°
2026-04-23 18:17 43.14496 76.85211 35201 ft 534 kts 39°
2026-04-23 18:17 43.19248 76.93173 35158 ft 545 kts 57°
2026-04-23 18:18 43.22229 77.02746 35049 ft 550 kts 76°
2026-04-23 18:18 43.23884 77.12985 35062 ft 548 kts 78°
2026-04-23 18:19 43.25481 77.23180 35144 ft 546 kts 78°
2026-04-23 18:19 43.27061 77.33369 35109 ft 548 kts 78°
2026-04-23 18:20 43.28639 77.43613 35187 ft 547 kts 78°
2026-04-23 18:20 43.30195 77.53780 35158 ft 546 kts 78°
2026-04-23 18:21 43.31752 77.64026 35185 ft 547 kts 78°
2026-04-23 18:21 43.33296 77.74247 35160 ft 544 kts 78°
2026-04-23 18:22 43.34824 77.84434 35154 ft 546 kts 79°
2026-04-23 18:22 43.36349 77.94667 35137 ft 547 kts 78°
2026-04-23 18:23 43.38614 78.09988 35134 ft 546 kts 78°
2026-04-23 18:24 43.40871 78.25392 35073 ft 547 kts 78°
2026-04-23 18:25 43.43097 78.40750 35067 ft 546 kts 78°
2026-04-23 18:25 43.44289 78.49036 35051 ft 547 kts 77°
2026-04-23 18:26 43.45998 78.60999 35044 ft 547 kts 78°
2026-04-23 18:26 43.47457 78.71283 35040 ft 547 kts 78°
2026-04-23 18:27 43.48914 78.81612 35034 ft 548 kts 78°
2026-04-23 18:27 43.50123 78.90258 35019 ft 548 kts 78°
2026-04-23 18:28 43.51786 79.02226 34994 ft 548 kts 77°
2026-04-23 18:28 43.53216 79.12583 35003 ft 546 kts 77°
2026-04-23 18:29 43.54535 79.22899 34960 ft 547 kts 84°
2026-04-23 18:29 43.54598 79.33334 34972 ft 548 kts 91°
2026-04-23 18:30 43.54371 79.43847 34963 ft 546 kts 92°
2026-04-23 18:30 43.54091 79.54321 34974 ft 547 kts 92°
2026-04-23 18:31 43.53791 79.64722 34985 ft 545 kts 92°
2026-04-23 18:31 43.53476 79.75150 34967 ft 545 kts 93°
2026-04-23 18:32 43.53149 79.85593 34981 ft 545 kts 93°
2026-04-23 18:32 43.52812 79.96029 34986 ft 544 kts 92°
2026-04-23 18:33 43.52467 80.06487 34982 ft 545 kts 93°
2026-04-23 18:33 43.52110 80.16921 34982 ft 546 kts 92°
2026-04-23 18:34 43.51807 80.25642 35100 ft 549 kts 92°
2026-04-23 18:34 43.51436 80.36031 35121 ft 538 kts 92°
2026-04-23 18:35 43.51056 80.46399 35091 ft 546 kts 92°
2026-04-23 18:35 43.50595 80.58632 35102 ft 546 kts 92°
2026-04-23 18:36 43.50196 80.69009 35098 ft 544 kts 93°
2026-04-23 18:36 43.49932 80.79463 35089 ft 544 kts 90°
2026-04-23 18:37 43.49789 80.89830 35126 ft 546 kts 90°
2026-04-23 18:37 43.49630 81.00335 35117 ft 544 kts 90°
2026-04-23 18:38 43.49461 81.10741 35168 ft 544 kts 90°
2026-04-23 18:38 43.49283 81.21116 35173 ft 545 kts 90°
2026-04-23 18:39 43.49094 81.31593 35185 ft 545 kts 89°
2026-04-23 18:39 43.48929 81.40276 35175 ft 544 kts 90°
2026-04-23 18:40 43.48688 81.52419 35165 ft 544 kts 89°
2026-04-23 18:40 43.48508 81.61082 35173 ft 545 kts 89°
2026-04-23 18:41 43.48282 81.71472 35134 ft 545 kts 90°
2026-04-23 18:41 43.48030 81.81920 35142 ft 544 kts 90°
2026-04-23 18:42 43.47772 81.92339 35134 ft 543 kts 90°
2026-04-23 18:42 43.47504 82.02747 35126 ft 543 kts 90°
2026-04-23 18:43 43.47229 82.13159 35136 ft 544 kts 90°
2026-04-23 18:43 43.46894 82.25267 35130 ft 543 kts 90°
2026-04-23 18:44 43.46646 82.33940 35166 ft 543 kts 90°
2026-04-23 18:44 43.46292 82.46008 35186 ft 542 kts 90°
2026-04-23 18:45 43.45975 82.56377 35210 ft 542 kts 90°
2026-04-23 18:45 43.45652 82.66717 35214 ft 541 kts 90°
2026-04-23 18:46 43.45372 82.75401 35195 ft 542 kts 90°
2026-04-23 18:46 43.45032 82.85695 35240 ft 540 kts 90°
2026-04-23 18:47 43.44682 82.96039 35268 ft 540 kts 90°
2026-04-23 18:47 43.44321 83.06371 35286 ft 542 kts 90°
2026-04-23 18:48 43.43953 83.16714 35297 ft 540 kts 90°
2026-04-23 18:48 43.43572 83.27074 35317 ft 540 kts 90°
2026-04-23 18:49 43.43182 83.37417 35320 ft 540 kts 91°
2026-04-23 18:49 43.42359 83.47726 35335 ft 541 kts 94°
2026-04-23 18:50 43.41632 83.56300 35350 ft 543 kts 94°
2026-04-23 18:50 43.40611 83.68303 35348 ft 542 kts 94°
2026-04-23 18:51 43.39726 83.78592 35358 ft 542 kts 94°
2026-04-23 18:51 43.38837 83.88855 35362 ft 542 kts 94°
2026-04-23 18:52 43.37944 83.99043 35373 ft 541 kts 94°
2026-04-23 18:52 43.37035 84.09328 35373 ft 542 kts 94°
2026-04-23 18:53 43.36114 84.19602 35365 ft 541 kts 94°
2026-04-23 18:53 43.35183 84.29906 35363 ft 541 kts 94°
2026-04-23 18:54 43.34239 84.40163 35351 ft 542 kts 94°
2026-04-23 18:54 43.33271 84.50382 35348 ft 540 kts 94°
2026-04-23 18:55 43.32287 84.60700 35349 ft 542 kts 94°
2026-04-23 18:55 43.31311 84.70824 35332 ft 540 kts 95°
2026-04-23 18:56 43.30309 84.81100 35334 ft 543 kts 95°
2026-04-23 18:56 43.29297 84.91402 35311 ft 541 kts 95°
2026-04-23 18:57 43.28288 85.01562 35335 ft 540 kts 95°
2026-04-23 18:57 43.27261 85.11820 35365 ft 541 kts 95°
2026-04-23 18:58 43.26229 85.22026 35392 ft 541 kts 94°
2026-04-23 18:58 43.25017 85.33918 35418 ft 539 kts 95°
2026-04-23 18:59 43.24144 85.42404 35251 ft 526 kts 95°
2026-04-23 18:59 43.23633 85.47315 35052 ft 514 kts 94°
2026-04-23 18:59 43.23129 85.52172 34753 ft 511 kts 94°
2026-04-23 18:59 43.22626 85.57002 34485 ft 514 kts 95°
2026-04-23 19:00 43.22116 85.61874 34226 ft 519 kts 94°
2026-04-23 19:00 43.21605 85.66730 33966 ft 521 kts 95°
2026-04-23 19:00 43.21089 85.71632 33692 ft 521 kts 96°
2026-04-23 19:00 43.20561 85.76584 33427 ft 520 kts 95°
2026-04-23 19:01 43.20045 85.81404 33163 ft 516 kts 95°
2026-04-23 19:01 43.19552 85.86361 32889 ft 513 kts 91°
2026-04-23 19:01 43.19481 85.91180 32648 ft 506 kts 81°
2026-04-23 19:01 43.20192 85.97495 32328 ft 497 kts 68°
2026-04-23 19:02 43.20873 86.00440 32182 ft 491 kts 62°
2026-04-23 19:02 43.22309 86.04672 31947 ft 482 kts 53°
2026-04-23 19:02 43.24024 86.08574 31579 ft 480 kts 51°
2026-04-23 19:02 43.25795 86.12452 31085 ft 481 kts 50°
2026-04-23 19:03 43.27587 86.16300 30544 ft 478 kts 50°
2026-04-23 19:03 43.29281 86.20283 30001 ft 480 kts 57°
2026-04-23 19:03 43.30576 86.24550 29461 ft 481 kts 62°
2026-04-23 19:03 43.31785 86.28759 28902 ft 477 kts 62°
2026-04-23 19:04 43.33006 86.33038 28341 ft 473 kts 62°
2026-04-23 19:04 43.34182 86.37182 27806 ft 469 kts 62°
2026-04-23 19:04 43.35361 86.41341 27272 ft 466 kts 62°
2026-04-23 19:04 43.36532 86.45483 26743 ft 463 kts 63°
2026-04-23 19:05 43.38076 86.50967 25900 ft 460 kts 62°
2026-04-23 19:05 43.38854 86.53723 25387 ft 461 kts 63°
2026-04-23 19:05 43.39998 86.57791 24652 ft 461 kts 63°
2026-04-23 19:05 43.41139 86.61865 23803 ft 451 kts 64°
2026-04-23 19:06 43.42238 86.65794 23078 ft 439 kts 63°
2026-04-23 19:06 43.43545 86.69553 22545 ft 431 kts 54°
2026-04-23 19:06 43.45153 86.72958 22039 ft 424 kts 52°
2026-04-23 19:06 43.46753 86.76330 21547 ft 420 kts 52°
2026-04-23 19:07 43.48367 86.79691 21037 ft 416 kts 52°
2026-04-23 19:07 43.49960 86.83011 20548 ft 412 kts 52°
2026-04-23 19:07 43.51534 86.86282 20092 ft 409 kts 52°
2026-04-23 19:07 43.53608 86.90611 19485 ft 407 kts 52°
2026-04-23 19:08 43.54646 86.92794 19167 ft 404 kts 53°
2026-04-23 19:08 43.56181 86.96012 18693 ft 401 kts 53°
2026-04-23 19:08 43.57702 86.99212 18238 ft 396 kts 53°
2026-04-23 19:08 43.59225 87.02412 17801 ft 394 kts 53°
2026-04-23 19:09 43.60711 87.05540 17316 ft 390 kts 53°
2026-04-23 19:09 43.62180 87.08640 16878 ft 386 kts 53°
2026-04-23 19:09 43.63653 87.11757 16508 ft 386 kts 54°
2026-04-23 19:09 43.65119 87.14867 16059 ft 383 kts 54°
2026-04-23 19:10 43.66562 87.17935 15608 ft 378 kts 54°
2026-04-23 19:10 43.67974 87.20934 15153 ft 376 kts 54°
2026-04-23 19:10 43.69398 87.23967 14708 ft 371 kts 54°
2026-04-23 19:10 43.70790 87.26934 14297 ft 372 kts 54°
2026-04-23 19:11 43.72187 87.29911 13851 ft 368 kts 54°
2026-04-23 19:11 43.73588 87.32901 13362 ft 367 kts 54°
2026-04-23 19:11 43.74958 87.35830 12941 ft 364 kts 54°
2026-04-23 19:11 43.76328 87.38759 12513 ft 362 kts 54°
2026-04-23 19:12 43.77693 87.41683 12051 ft 358 kts 55°
2026-04-23 19:12 43.79043 87.44553 11648 ft 355 kts 52°
2026-04-23 19:12 43.80693 87.47052 11304 ft 347 kts 36°
2026-04-23 19:12 43.82672 87.48946 10963 ft 348 kts 32°
2026-04-23 19:13 43.84661 87.50852 10560 ft 346 kts 32°
2026-04-23 19:13 43.86634 87.52717 10218 ft 340 kts 32°
2026-04-23 19:13 43.88555 87.54542 10180 ft 324 kts 32°
2026-04-23 19:13 43.90377 87.56265 10106 ft 309 kts 32°
2026-04-23 19:14 43.92670 87.58433 9867 ft 289 kts 32°
2026-04-23 19:14 43.94288 87.59963 9649 ft 277 kts 32°
2026-04-23 19:14 43.95336 87.60953 9567 ft 268 kts 32°
2026-04-23 19:14 43.96837 87.62372 9452 ft 252 kts 32°
2026-04-23 19:15 43.98257 87.63716 9346 ft 239 kts 32°
2026-04-23 19:15 43.99618 87.65005 9127 ft 231 kts 33°
2026-04-23 19:15 44.00930 87.66246 9014 ft 228 kts 33°
2026-04-23 19:15 44.02229 87.67477 8912 ft 224 kts 33°
2026-04-23 19:16 44.03517 87.68697 8710 ft 225 kts 33°
2026-04-23 19:16 44.04803 87.69916 8516 ft 222 kts 33°
2026-04-23 19:16 44.06053 87.71104 8348 ft 209 kts 33°
2026-04-23 19:17 44.07747 87.74094 8209 ft 204 kts 71°
2026-04-23 19:17 44.08185 87.76014 8086 ft 212 kts 70°
2026-04-23 19:17 44.08618 87.77919 7981 ft 205 kts 71°
2026-04-23 19:17 44.09034 87.79808 7827 ft 203 kts 71°
2026-04-23 19:18 44.09444 87.81707 7686 ft 203 kts 72°
2026-04-23 19:18 44.09528 87.83643 7530 ft 204 kts 104°
2026-04-23 19:18 44.08761 87.85290 7369 ft 208 kts 142°
2026-04-23 19:18 44.07435 87.86113 7216 ft 210 kts 162°
2026-04-23 19:19 44.04610 87.87089 6696 ft 212 kts 184°
2026-04-23 19:19 44.03265 87.86378 6387 ft 206 kts 221°
2026-04-23 19:20 44.01756 87.83189 5854 ft 193 kts 239°
2026-04-23 19:20 44.01085 87.81611 5636 ft 184 kts 239°
2026-04-23 19:20 44.00451 87.80119 5384 ft 176 kts 239°
2026-04-23 19:20 43.99843 87.78701 5187 ft 166 kts 239°
2026-04-23 19:21 43.99272 87.77368 5086 ft 153 kts 239°
2026-04-23 19:21 43.98540 87.74579 4902 ft 153 kts 253°
2026-04-23 19:21 43.98249 87.73222 4926 ft 161 kts 253°
2026-04-23 19:22 43.97928 87.71713 4892 ft 159 kts 253°
2026-04-23 19:22 43.97619 87.70254 4889 ft 157 kts 253°
2026-04-23 19:22 43.96988 87.67266 4710 ft 164 kts 253°
2026-04-23 19:23 43.96672 87.65781 4489 ft 158 kts 253°
2026-04-23 19:23 43.96363 87.64325 4279 ft 155 kts 253°
2026-04-23 19:23 43.96058 87.62886 4087 ft 156 kts 253°
2026-04-23 19:24 43.95456 87.59997 3697 ft 155 kts 253°
2026-04-23 19:24 43.95151 87.58553 3495 ft 154 kts 253°
2026-04-23 19:24 43.94552 87.55718 3097 ft 152 kts 253°
2026-04-23 19:25 43.93961 87.52914 2682 ft 150 kts 252°
2026-04-23 19:25 43.93378 87.50156 2293 ft 148 kts 251°
2026-04-23 19:26 43.92810 87.47527 2139 ft 110 kts 254°
2026-04-23 19:26 43.92673 87.46886 2139 ft 34 kts 253°
2026-04-23 19:27 43.92508 87.46297 2139 ft 22 kts 228°
2026-04-23 19:27 43.92361 87.46086 2140 ft 5 kts 229°
2026-04-23 19:28 43.92303 87.45979 2140 ft 6 kts 247°
2026-04-23 19:28 43.92248 87.45721 2140 ft 19 kts 254°
2026-04-23 19:29 43.92208 87.45551 2140 ft 15 kts 231°
2026-04-23 19:29 43.92021 87.45589 2140 ft 13 kts 163°
2026-04-23 19:30 43.91889 87.45703 2140 ft 9 kts 82°
2026-04-23 19:30 43.91907 87.45790 2140 ft 9 kts 73°
2026-04-23 19:30 43.91945 87.45963 2140 ft 9 kts 74°
2026-04-23 19:31 43.91970 87.46083 2140 ft 19 kts 74°
2026-04-23 19:31 43.92022 87.46327 2140 ft 31 kts 74°
2026-04-23 19:31 43.92083 87.46620 2140 ft 31 kts 73°
2026-04-23 19:31 43.92146 87.46908 2140 ft 30 kts 74°
2026-04-23 19:32 43.92206 87.47192 2140 ft 30 kts 74°
2026-04-23 19:32 43.92265 87.47467 2140 ft 29 kts 74°
2026-04-23 19:32 43.92321 87.47736 2140 ft 28 kts 74°
2026-04-23 19:32 43.92377 87.48002 2140 ft 28 kts 74°
2026-04-23 19:33 43.92432 87.48258 2140 ft 27 kts 74°
2026-04-23 19:33 43.92477 87.48480 2140 ft 12 kts 88°
2026-04-23 19:33 43.92359 87.48576 2140 ft 17 kts 158°
2026-04-23 19:34 43.92219 87.48656 2140 ft 23 kts 163°
2026-04-23 19:34 43.92066 87.48719 2140 ft 22 kts 163°
2026-04-23 19:34 43.91819 87.48822 2140 ft 17 kts 163°
2026-04-23 19:35 43.91707 87.48869 2140 ft 16 kts 164°
2026-04-23 19:35 43.91597 87.48914 2141 ft 16 kts 163°
2026-04-23 19:35 43.91492 87.48958 2141 ft 15 kts 163°
2026-04-23 19:35 43.91402 87.49008 2141 ft 9 kts 120°
2026-04-23 19:36 43.91411 87.49086 2141 ft 8 kts 57°
2026-04-23 19:36 43.91429 87.49132 2141 ft 8 kts 68°
2026-04-23 19:36 43.91457 87.49253 2141 ft 16 kts 73°
2026-04-23 19:36 43.91489 87.49403 2141 ft 16 kts 73°
2026-04-23 19:37 43.91513 87.49510 2141 ft 8 kts 74°
2026-04-23 19:37 43.91512 87.49628 2141 ft 15 kts 84°
2026-04-23 19:37 43.91540 87.49766 2141 ft 14 kts 73°
2026-04-23 19:37 43.91560 87.49892 2141 ft 10 kts 101°
2026-04-23 19:38 43.91512 87.49950 2141 ft 8 kts 163°
2026-04-23 19:38 43.91455 87.49974 2141 ft 8 kts 163°
2026-04-23 19:38 43.91398 87.49998 2141 ft 8 kts 163°
2026-04-23 19:38 43.91342 87.50021 2141 ft 8 kts 163°
2026-04-23 19:39 43.91287 87.50045 2141 ft 8 kts 162°
2026-04-23 19:39 43.91232 87.50069 2141 ft 9 kts 164°
2026-04-23 19:39 43.91146 87.50103 2141 ft 14 kts 164°
2026-04-23 19:39 43.91059 87.50128 2142 ft 8 kts 200°
2026-04-23 19:40 43.91005 87.50101 2142 ft 7 kts 173°
2026-04-23 19:40 43.90956 87.50120 2142 ft 7 kts 163°
2026-04-23 19:40 43.90913 87.50120 2142 ft 5 kts 212°
2026-04-23 19:40 43.90885 87.50056 2142 ft 13 kts 252°
2026-04-23 19:41 43.90853 87.49930 2142 ft 9 kts 227°
2026-04-23 19:41 43.90805 87.49930 2141 ft 5 kts 162°
2026-04-23 19:41 43.90781 87.49940 2141 ft 0 kts 163°